FW9314 Weather Reports


time (UTC)temp
F
wind
direction
speed
knots
gust
knots
rain 1hr
in
rain 24hr
in
rain mn
in
humidity
%
barometer
mb
20260906182557 99 0 0.0 1.7 0.00 0.00 0.00 47 1014.6
20260906182058 98 150 0.0 1.7 0.00 0.00 0.00 50 1014.5
20260906181603 97 122 0.0 1.7 0.00 0.00 0.00 49 1014.7
20260906181058 96 143 0.9 1.7 0.00 0.00 0.00 51 1014.8
20260906180556 96 96 0.0 3.5 0.00 0.00 0.00 51 1014.9
20260906180107 96 81 0.9 3.5 0.00 0.00 0.00 51 1014.9
20260906175557 96 173 0.9 2.6 0.00 0.00 0.00 50 1015.0
20260906175059 96 78 0.9 1.7 0.00 0.00 0.00 52 1015.2
20260906174558 95 94 0.0 2.6 0.00 0.00 0.00 54 1015.3
20260906174057 95 82 0.9 2.6 0.00 0.00 0.00 52 1015.3
20260906173558 95 0 0.0 1.7 0.00 0.00 0.00 52 1015.4
20260906173113 95 0 0.9 2.6 0.00 0.00 0.00 52 1015.5
20260906172559 95 156 0.0 2.6 0.00 0.00 0.00 54 1015.5
20260906172100 95 180 0.9 2.6 0.00 0.00 0.00 54 1015.5
20260906171605 94 0 0.0 0.9 0.00 0.00 0.00 54 1015.6
20260906171056 94 283 0.0 0.9 0.00 0.00 0.00 57 1015.7
20260906170559 93 0 0.0 0.9 0.00 0.00 0.00 59 1015.9
20260906170110 93 300 0.0 0.9 0.00 0.00 0.00 54 1015.9
20260906165558 94 0 0.0 0.9 0.00 0.00 0.00 59 1015.9
20260906165057 93 97 0.0 0.9 0.00 0.00 0.00 62 1016.0
20260906164601 92 0 0.0 0.9 0.00 0.00 0.00 60 1016.0
20260906164057 92 0 0.0 0.9 0.00 0.00 0.00 63 1016.0
20260906163601 91 0 0.0 0.9 0.00 0.00 0.00 63 1016.1
20260906163102 91 0 0.0 1.7 0.00 0.00 0.00 63 1016.1
20260906162559 91 98 0.0 3.5 0.00 0.00 0.00 61 1016.1
20260906162057 90 0 0.0 3.5 0.00 0.00 0.00 61 1015.9
20260906161601 90 85 0.0 2.6 0.00 0.00 0.00 61 1015.9
20260906161057 90 101 0.9 2.6 0.00 0.00 0.00 61 1015.8
20260906160557 90 0 0.0 1.7 0.00 0.00 0.00 61 1015.9
20260906160104 90 114 0.9 1.7 0.00 0.00 0.00 62 1015.8
20260906155557 90 75 0.0 1.7 0.00 0.00 0.00 64 1015.8
20260906155058 89 82 0.0 1.7 0.00 0.00 0.00 64 1015.7
20260906154604 89 0 0.0 0.9 0.00 0.00 0.00 63 1015.7
20260906154057 89 0 0.0 1.7 0.00 0.00 0.00 63 1015.8
20260906153558 90 95 0.0 1.7 0.00 0.00 0.00 62 1015.7
20260906153104 90 0 0.0 0.9 0.00 0.00 0.00 63 1015.7
20260906152559 90 109 0.0 0.9 0.00 0.00 0.00 62 1015.7
20260906152058 90 0 0.0 1.7 0.00 0.00 0.00 62 1015.6
20260906151602 90 0 0.0 1.7 0.00 0.00 0.00 62 1015.6
20260906151058 90 137 0.0 0.9 0.00 0.00 0.00 63 1015.6
20260906150558 90 0 0.0 2.6 0.00 0.00 0.00 63 1015.6
20260906150111 90 131 0.9 2.6 0.00 0.00 0.00 63 1015.5
20260906145557 89 147 0.9 2.6 0.00 0.00 0.00 65 1015.5
20260906145057 88 103 0.0 2.6 0.00 0.00 0.00 67 1015.5
20260906144607 87 81 0.9 2.6 0.00 0.00 0.00 67 1015.4
20260906144057 87 117 0.9 2.6 0.00 0.00 0.00 68 1015.5
20260906143556 86 117 0.0 1.7 0.00 0.00 0.00 69 1015.5
20260906143101 86 105 0.0 1.7 0.00 0.00 0.00 71 1015.6
20260906142557 85 105 0.0 1.7 0.00 0.00 0.00 73 1015.6
20260906142058 84 112 0.0 1.7 0.00 0.00 0.00 75 1015.6
20260906141618 83 130 0.0 2.6 0.00 0.00 0.00 76 1015.7
20260906141057 82 83 0.9 2.6 0.00 0.00 0.00 76 1015.6
20260906140557 82 119 0.0 4.3 0.00 0.00 0.00 78 1015.7
20260906140116 81 0 0.0 4.3 0.00 0.00 0.00 79 1015.6
20260906135557 81 115 0.0 4.3 0.00 0.00 0.00 80 1015.5
20260906135058 80 120 0.0 2.6 0.00 0.00 0.00 80 1015.5
20260906134631 80 89 0.0 2.6 0.00 0.00 0.00 81 1015.4
20260906134057 79 136 0.0 1.7 0.00 0.00 0.00 83 1015.6
20260906133557 79 77 0.0 1.7 0.00 0.00 0.00 83 1015.5
20260906133111 79 0 0.0 1.7 0.00 0.00 0.00 83 1015.4
20260906132557 78 0 0.0 1.7 0.00 0.00 0.00 84 1015.5
20260906132057 78 0 0.0 1.7 0.00 0.00 0.00 85 1015.5
20260906131601 77 95 0.0 1.7 0.00 0.00 0.00 86 1015.4
20260906131058 77 0 0.0 0.9 0.00 0.00 0.00 88 1015.3
20260906130558 76 0 0.0 0.9 0.00 0.00 0.00 89 1015.3
20260906130146 75 105 0.0 0.9 0.00 0.00 0.00 89 1015.4
20260906125558 75 100 0.0 0.9 0.00 0.00 0.00 90 1015.3
20260906125056 75 0 0.0 0.9 0.00 0.00 0.00 91 1015.3
20260906124609 74 0 0.0 0.9 0.00 0.00 0.00 91 1015.2
20260906124057 74 0 0.0 0.0 0.00 0.00 0.00 92 1015.2
20260906123557 74 0 0.0 0.0 0.00 0.00 0.00 93 1014.9
20260906123104 73 0 0.0 0.0 0.00 0.00 0.00 93 1014.9
20260906122556 73 0 0.0 0.0 0.00 0.00 0.00 94 1014.8
20260906122058 73 0 0.0 0.0 0.00 0.00 0.00 94 1014.8
20260906121610 73 0 0.0 0.0 0.00 0.00 0.00 93 1014.8
20260906121057 73 0 0.0 0.0 0.00 0.00 0.00 92 1014.7
20260906120557 73 0 0.0 0.0 0.00 0.00 0.00 92 1014.5
20260906120111 73 0 0.0 0.0 0.00 0.00 0.00 92 1014.5
20260906115557 73 0 0.0 0.0 0.00 0.00 0.00 92 1014.5
20260906115058 73 0 0.0 0.0 0.00 0.00 0.00 93 1014.4
20260906114607 73 0 0.0 0.0 0.00 0.00 0.00 93 1014.3
20260906114058 73 0 0.0 0.0 0.00 0.00 0.00 93 1014.3
20260906113557 73 0 0.0 0.0 0.00 0.00 0.00 93 1014.2
20260906113108 73 0 0.0 0.0 0.00 0.00 0.00 94 1014.3
20260906112557 73 0 0.0 0.0 0.00 0.00 0.00 94 1014.2
20260906112058 73 0 0.0 0.0 0.00 0.00 0.00 94 1014.2
20260906111602 73 0 0.0 0.0 0.00 0.00 0.00 94 1014.3
20260906111058 73 0 0.0 0.0 0.00 0.00 0.00 93 1014.2
20260906110558 73 0 0.0 0.0 0.00 0.00 0.00 93 1014.3
20260906110101 73 0 0.0 0.0 0.00 0.00 0.00 93 1014.1
20260906105557 73 0 0.0 0.0 0.00 0.00 0.00 93 1014.2
20260906105056 73 0 0.0 0.0 0.00 0.00 0.00 93 1014.1
20260906104603 73 0 0.0 0.0 0.00 0.00 0.00 93 1014.1
20260906104059 73 0 0.0 0.0 0.00 0.00 0.00 93 1014.2
20260906103555 73 0 0.0 0.0 0.00 0.00 0.00 93 1014.2
20260906103101 73 0 0.0 0.0 0.00 0.00 0.00 93 1014.1
20260906102559 73 0 0.0 0.0 0.00 0.00 0.00 94 1014.2
20260906102058 73 0 0.0 0.0 0.00 0.00 0.00 94 1014.1
20260906101602 73 0 0.0 0.0 0.00 0.00 0.00 93 1014.2
20260906101058 73 0 0.0 0.0 0.00 0.00 0.00 93 1014.1
20260906100558 73 0 0.0 0.0 0.00 0.00 0.00 92 1014.1
20260906100059 73 0 0.0 0.0 0.00 0.00 0.00 92 1014.1
20260906095559 73 0 0.0 0.0 0.00 0.00 0.00 91 1014.2
20260906095059 73 0 0.0 0.0 0.00 0.00 0.00 91 1014.2
20260906094601 74 0 0.0 0.0 0.00 0.00 0.00 90 1014.1
20260906094056 74 0 0.0 0.0 0.00 0.00 0.00 90 1014.2
20260906093559 74 0 0.0 0.0 0.00 0.00 0.00 90 1014.2
20260906093105 74 0 0.0 0.0 0.00 0.00 0.00 90 1014.1
20260906092559 74 0 0.0 0.0 0.00 0.00 0.00 89 1014.1
20260906092059 75 0 0.0 0.0 0.00 0.00 0.00 88 1014.1
20260906091608 75 0 0.0 0.0 0.00 0.00 0.00 88 1014.0
20260906091058 75 0 0.0 0.0 0.00 0.00 0.00 88 1014.0
20260906090558 75 0 0.0 0.0 0.00 0.00 0.00 88 1014.0
20260906085555 76 0 0.0 0.0 0.00 0.00 0.00 87 1014.0
20260906085058 76 0 0.0 0.0 0.00 0.00 0.00 87 1013.9
20260906084606 76 0 0.0 0.0 0.00 0.00 0.00 87 1013.8
20260906084100 76 0 0.0 0.0 0.00 0.00 0.00 86 1013.7
20260906083559 76 0 0.0 0.0 0.00 0.00 0.00 86 1013.7
20260906083104 76 0 0.0 0.0 0.00 0.00 0.00 86 1013.6
20260906082559 76 0 0.0 0.0 0.00 0.00 0.00 85 1013.7
20260906082057 77 0 0.0 0.0 0.00 0.00 0.00 85 1013.6
20260906081603 77 0 0.0 0.9 0.00 0.00 0.00 85 1013.7
20260906081101 77 0 0.0 0.9 0.00 0.00 0.00 84 1013.8
20260906080559 77 0 0.0 0.0 0.00 0.00 0.00 84 1013.6
20260906075558 78 0 0.0 0.0 0.00 0.00 0.00 81 1013.5
20260906075058 78 0 0.0 0.0 0.00 0.00 0.00 81 1013.5
20260906074600 78 0 0.0 0.0 0.00 0.00 0.00 81 1013.5
20260906074058 79 0 0.0 0.0 0.00 0.00 0.00 80 1013.6
20260906073558 79 0 0.0 0.0 0.00 0.00 0.00 79 1013.6
20260906073100 79 0 0.0 0.9 0.00 0.00 0.00 79 1013.5
20260906072558 79 0 0.0 0.9 0.00 0.00 0.00 79 1013.5
20260906072057 79 0 0.0 0.9 0.00 0.00 0.00 79 1013.5
20260906071604 79 0 0.0 0.0 0.00 0.00 0.00 78 1013.6
20260906071103 80 0 0.0 0.0 0.00 0.00 0.00 78 1013.6
20260906070559 80 0 0.0 0.0 0.00 0.00 0.00 77 1013.6
20260906065558 80 0 0.0 0.9 0.00 0.00 0.00 77 1013.6
20260906065059 80 0 0.0 0.0 0.00 0.00 0.00 77 1013.8
20260906064602 80 0 0.0 0.0 0.00 0.00 0.00 77 1013.8
20260906064059 80 0 0.0 0.0 0.00 0.00 0.00 78 1013.7
20260906063600 80 0 0.0 0.0 0.00 0.00 0.00 78 1013.8
20260906063103 80 0 0.0 0.9 0.00 0.00 0.00 78 1013.8
20260906062558 80 0 0.0 0.9 0.00 0.00 0.00 78 1013.8
20260906062059 79 0 0.0 0.0 0.00 0.00 0.00 79 1013.8
20260906061626 79 0 0.0 0.0 0.00 0.00 0.00 79 1013.8
20260906061101 79 0 0.0 0.0 0.00 0.00 0.00 80 1013.8
20260906060559 79 0 0.0 0.0 0.00 0.00 0.00 80 1013.8
20260906060116 79 0 0.0 0.0 0.00 0.00 0.00 79 1013.7
20260906055558 80 0 0.0 0.0 0.00 0.00 0.00 79 1013.8
20260906055058 80 0 0.0 0.0 0.00 0.00 0.00 79 1013.8
20260906054601 80 0 0.0 0.0 0.00 0.00 0.00 79 1013.8
20260906054058 80 0 0.0 0.0 0.00 0.00 0.00 78 1013.9
20260906053558 80 0 0.0 0.0 0.00 0.00 0.00 78 1013.9
20260906053105 80 0 0.0 0.0 0.00 0.00 0.00 77 1013.8
20260906052558 81 0 0.0 0.0 0.00 0.00 0.00 77 1013.8
20260906052058 81 0 0.0 0.0 0.00 0.00 0.00 77 1013.9
20260906051606 81 88 0.0 0.0 0.00 0.00 0.00 77 1013.9
20260906051058 81 0 0.0 0.9 0.00 0.00 0.00 76 1013.9
20260906050559 81 0 0.0 0.9 0.00 0.00 0.00 75 1013.8
20260906050105 82 0 0.0 0.9 0.00 0.00 0.00 75 1014.0
20260906045603 82 0 0.0 0.9 0.00 0.00 0.00 75 1013.9
20260906045058 82 0 0.0 0.9 0.00 0.00 0.00 74 1013.9
20260906044603 82 0 0.0 0.9 0.00 0.00 0.00 74 1013.8
20260906044058 83 0 0.0 0.9 0.00 0.00 0.00 73 1013.7
20260906043602 83 87 0.0 0.9 0.00 0.00 0.00 73 1013.7
20260906043106 83 0 0.0 1.7 0.00 0.00 0.00 73 1013.7
20260906042558 83 0 0.0 1.7 0.00 0.00 0.00 73 1013.8
20260906042058 83 85 0.0 1.7 0.00 0.00 0.00 73 1013.7
20260906041602 83 116 0.0 0.9 0.00 0.00 0.00 73 1013.8
20260906041058 83 95 0.0 0.9 0.00 0.00 0.00 73 1013.6
20260906040557 83 0 0.0 0.9 0.00 0.00 0.00 73 1013.8
20260906040103 83 84 0.0 0.9 0.00 0.00 0.00 73 1013.5
20260906035557 83 0 0.0 0.9 0.00 0.00 0.00 72 1013.5
20260906035058 83 0 0.0 2.6 0.00 0.00 0.00 72 1013.5
20260906034606 83 0 0.0 2.6 0.00 0.00 0.00 72 1013.5
20260906034056 83 113 0.0 0.9 0.00 0.00 0.00 71 1013.4
20260906033557 83 0 0.0 0.9 0.00 0.00 0.00 71 1013.4
20260906033104 83 0 0.0 0.9 0.00 0.00 0.00 70 1013.2
20260906032557 84 0 0.0 0.9 0.00 0.00 0.00 70 1013.3
20260906032058 83 0 0.0 0.9 0.00 0.00 0.00 70 1013.2
20260906031603 83 101 0.0 1.7 0.00 0.00 0.00 70 1013.1
20260906031101 83 134 0.0 1.7 0.00 0.00 0.00 71 1013.1
20260906030558 83 0 0.0 0.0 0.00 0.00 0.00 70 1013.0
20260906030101 82 0 0.0 0.0 0.00 0.00 0.00 70 1013.0
20260906025557 83 0 0.0 0.0 0.00 0.00 0.00 69 1013.0
20260906025057 83 0 0.0 0.0 0.00 0.00 0.00 69 1012.8
20260906024601 83 0 0.0 0.9 0.00 0.00 0.00 68 1012.8
20260906024058 83 0 0.0 0.9 0.00 0.00 0.00 68 1012.8
20260906023558 84 0 0.0 0.9 0.00 0.00 0.00 68 1012.7
20260906023108 84 0 0.0 0.0 0.00 0.00 0.00 67 1012.5
20260906022556 84 0 0.0 0.0 0.00 0.00 0.00 66 1012.3
20260906022058 84 0 0.0 0.0 0.00 0.00 0.00 66 1012.4
20260906021604 85 0 0.0 0.0 0.00 0.00 0.00 66 1012.3
20260906021057 85 0 0.0 0.9 0.00 0.00 0.00 65 1012.2
20260906020557 85 0 0.0 0.9 0.00 0.00 0.00 66 1012.1
20260906015601 85 0 0.0 0.0 0.00 0.00 0.00 67 1012.1
20260906015101 85 0 0.0 0.0 0.00 0.00 0.00 67 1012.0
20260906014608 85 0 0.0 0.0 0.00 0.00 0.00 67 1011.9
20260906014059 86 0 0.0 0.0 0.00 0.00 0.00 66 1011.9
20260906013600 86 0 0.0 0.0 0.00 0.00 0.00 66 1012.0
20260906013104 86 0 0.0 0.0 0.00 0.00 0.00 66 1011.9
20260906012558 86 0 0.0 0.0 0.00 0.00 0.00 66 1011.9
20260906012057 86 0 0.0 0.0 0.00 0.00 0.00 66 1011.8
20260906011607 87 0 0.0 0.0 0.00 0.00 0.00 66 1011.8
20260906011058 87 0 0.0 0.0 0.00 0.00 0.00 65 1011.8
20260906010558 87 0 0.0 0.0 0.00 0.00 0.00 65 1011.8
20260906010108 88 0 0.0 0.0 0.00 0.00 0.00 65 1011.7
20260906005558 88 0 0.0 0.0 0.00 0.00 0.00 64 1011.7
20260906005102 88 0 0.0 0.0 0.00 0.00 0.00 62 1011.7
20260906004602 89 0 0.0 0.0 0.00 0.00 0.00 62 1011.7
20260906004100 89 0 0.0 0.0 0.00 0.00 0.00 60 1011.8
20260906003558 89 0 0.0 0.0 0.00 0.00 0.00 60 1011.7
20260906003101 90 0 0.0 0.0 0.00 0.00 0.00 58 1011.8
20260906002558 90 0 0.0 0.0 0.00 0.00 0.00 57 1011.7
20260906002058 90 0 0.0 0.0 0.00 0.00 0.00 56 1011.8
20260906001602 91 0 0.0 0.0 0.00 0.00 0.00 56 1011.7
20260906001058 91 0 0.0 0.0 0.00 0.00 0.00 55 1011.6
20260906000558 91 0 0.0 0.0 0.00 0.00 0.00 53 1011.7
20260906000109 92 0 0.0 0.0 0.00 0.00 0.00 52 1011.6
20260905235558 92 0 0.0 0.0 0.00 0.00 0.00 52 1011.7
20260905235058 92 0 0.0 0.0 0.00 0.00 0.00 52 1011.8
20260905234602 93 0 0.0 0.0 0.00 0.00 0.00 54 1011.8
20260905234057 93 0 0.0 0.0 0.00 0.00 0.00 54 1011.8
20260905233600 93 0 0.0 0.0 0.00 0.00 0.00 51 1011.9
20260905233117 93 0 0.0 0.0 0.00 0.00 0.00 51 1011.7
20260905232559 94 0 0.0 0.0 0.00 0.00 0.00 51 1011.9
20260905232058 94 0 0.0 0.0 0.00 0.00 0.00 51 1011.9
20260905231602 94 0 0.0 0.0 0.00 0.00 0.00 50 1011.7
20260905231057 94 0 0.0 0.0 0.00 0.00 0.00 49 1011.8
20260905230558 95 0 0.0 0.0 0.00 0.00 0.00 49 1011.7
20260905230104 96 0 0.0 0.0 0.00 0.00 0.00 48 1011.7
20260905225559 96 0 0.0 0.9 0.00 0.00 0.00 45 1011.7
20260905225057 97 0 0.0 0.9 0.00 0.00 0.00 45 1011.7
20260905224604 97 0 0.0 0.9 0.00 0.00 0.00 44 1011.6
20260905224059 98 0 0.0 0.9 0.00 0.00 0.00 44 1011.7
20260905223557 98 145 0.0 0.9 0.00 0.00 0.00 45 1011.6
20260905223101 99 0 0.0 1.7 0.00 0.00 0.00 43 1011.7
20260905222557 99 0 0.0 3.5 0.00 0.00 0.00 43 1011.8
20260905222058 99 0 0.9 3.5 0.00 0.00 0.00 42 1011.8
20260905221604 99 207 0.0 9.6 0.00 0.00 0.00 43 1011.9
20260905221058 99 238 1.7 9.6 0.00 0.00 0.00 43 1011.9
20260905220557 99 0 0.0 1.7 0.00 0.00 0.00 43 1012.0
20260905220106 99 0 0.0 1.7 0.00 0.00 0.00 43 1011.9
20260905215558 99 169 0.0 1.7 0.00 0.00 0.00 41 1011.9
20260905215058 99 94 0.0 1.7 0.00 0.00 0.00 40 1012.1
20260905214604 99 0 0.0 2.6 0.00 0.00 0.00 42 1012.0
20260905214057 99 0 0.0 2.6 0.00 0.00 0.00 41 1011.9
20260905213558 99 0 0.0 2.6 0.00 0.00 0.00 41 1012.1
20260905213110 100 0 0.0 2.6 0.00 0.00 0.00 43 1012.1
20260905212602 100 159 0.0 2.6 0.00 0.00 0.00 43 1012.2
20260905212057 100 145 0.9 2.6 0.00 0.00 0.00 45 1012.2
20260905211611 100 81 0.9 1.7 0.00 0.00 0.00 42 1012.1
20260905211100 100 0 0.0 2.6 0.00 0.00 0.00 43 1012.2
20260905210557 100 111 0.9 5.2 0.00 0.00 0.00 42 1012.4
20260905210112 101 138 1.7 5.2 0.00 0.00 0.00 39 1012.5
20260905205557 101 94 0.9 3.5 0.00 0.00 0.00 40 1012.6
20260905205100 101 106 0.9 3.5 0.00 0.00 0.00 39 1012.6
20260905204606 102 165 0.9 3.5 0.00 0.00 0.00 40 1012.7
20260905204057 102 103 0.0 3.5 0.00 0.00 0.00 41 1012.8
20260905203601 102 0 0.9 5.2 0.00 0.00 0.00 41 1012.8
20260905203107 102 0 0.9 5.2 0.00 0.00 0.00 42 1012.9
20260905202600 102 166 0.9 3.5 0.00 0.00 0.00 41 1012.9
20260905202058 101 201 0.0 3.5 0.00 0.00 0.00 41 1013.0
20260905201607 101 0 0.9 4.3 0.00 0.00 0.00 38 1013.0
20260905201057 101 99 0.0 6.1 0.00 0.00 0.00 42 1013.0
20260905200559 101 78 0.9 7.0 0.00 0.00 0.00 39 1013.0
20260905200104 101 203 1.7 7.0 0.00 0.00 0.00 40 1013.1
20260905195558 101 194 0.9 3.5 0.00 0.00 0.00 41 1013.1
20260905195057 101 180 1.7 5.2 0.00 0.00 0.00 38 1013.2
20260905194606 101 203 0.0 5.2 0.00 0.00 0.00 39 1013.3
20260905194058 102 293 0.0 2.6 0.00 0.00 0.00 42 1013.2
20260905193558 101 0 0.0 4.3 0.00 0.00 0.00 41 1013.4
20260905193104 101 228 0.9 4.3 0.00 0.00 0.00 42 1013.4
20260905192558 101 159 1.7 4.3 0.00 0.00 0.00 41 1013.4
20260905192057 101 92 0.9 4.3 0.00 0.00 0.00 40 1013.3
20260905191602 101 100 0.9 3.5 0.00 0.00 0.00 40 1013.4
20260905191059 101 141 0.9 2.6 0.00 0.00 0.00 42 1013.5
20260905190602 100 81 0.9 6.1 0.00 0.00 0.00 42 1013.5
20260905190108 100 174 1.7 6.1 0.00 0.00 0.00 43 1013.6
20260905185602 100 186 0.9 6.1 0.00 0.00 0.00 43 1013.6
20260905185058 100 194 1.7 6.1 0.00 0.00 0.00 42 1013.6
20260905184609 101 137 0.0 4.3 0.00 0.00 0.00 43 1013.8
20260905184058 100 57 0.9 6.1 0.00 0.00 0.00 45 1013.8
20260905183558 100 54 0.0 6.1 0.00 0.00 0.00 45 1013.8
20260905183119 100 0 2.6 6.1 0.00 0.00 0.00 45 1013.9